Погода в Керносовке

Украина / Днепропетровская область     48°57′15″N   35°37′58″E
темп.,
°C
ветер,
м/с
пор.,
м/с
влажн.,
%
обл.,
%
осадки,
мм/ч
давл.,
гПа
погр.,
м
11 мая, вт
вт1100:00+9с91785100 0.9 1015864
03:00+9с71582100 0.9 1014649
06:00+10с81785100 0.1 1014596
09:00+12ссв81482100 0.1 1013930
12:00+10в7984100 0.1 1015728
15:00+12св7105611 0.2 10161602
18:00+12св7116321 0.0 10161478
21:00+8св61180100 0.1 1016711
12 мая, ср
ср1200:00+8всв8128168 0.1 1015845
03:00+7всв81289100 0.3 1016749
06:00+7в71188100 0.1 1016895
09:00+7в61091100 0.4 1016846
12:00+10вюв6873100 0.6 10151192
15:00+9юв5784100 4.6 1014665
18:00+11ююв357449 0.7 1013995
21:00+8ююв34876 0.9 101348
13 мая, чт
чт1300:00+7ююв369073 0.0 1014104
03:00+6юв3392100 0.0 101442
06:00+7вюв349035 0.0 101569
09:00+13юв34728 0.0 1014594
12:00+18ю465947 0.0 10141403
15:00+21ю355168 0.0 10131767
18:00+20в2362100 0.0 1012123
21:00+15в4981100 0.0 1012164
14 мая, пт
пт1400:00+14вюв358971 0.0 101266
03:00+14вюв489332 0.0 1011138
06:00+14юв399639 0.6 1011216
09:00+19ююв5780100 1.4 1010508
12:00+24ююв4660100 0.0 10101126
15:00+26ю4551100 0.0 10101375
18:00+24ююв3561100 0.2 1009333
21:00+17юз11775 4.8 100911
15 мая, сб
сб1500:00+15зсз118118 2.9 100911
03:00+14юз238271 2.9 101023
06:00+14юз22895 0.0 101038
09:00+19юз45735 0.0 1011617
12:00+22юз57566 0.0 10121550
15:00+24юз6746100 0.0 10112602
18:00+17ю6978100 1.4 1012180
21:00+15ююз33802 2.2 101226